This is the latest recevied weather packets stored in our database for station/object K6HFP. If no packets are shown the sender has not sent any weather packets the latest 10 day(s).
| Time | Temp. | Humidity | Pressure | Rain* | Wind** | Luminosity | Snow |
|---|---|---|---|---|---|---|---|
| 1777868350 | 13.33° C | 79% | 1011.5 hPa | 0 mm | - | 0 W/m² | - |
| 1777868046 | 13.33° C | 78% | 1011.4 hPa | 0 mm | - | 0 W/m² | - |
| 1777867742 | 13.33° C | 78% | 1011.8 hPa | 0 mm | - | 0 W/m² | - |
| 1777867440 | 13.33° C | 77% | 1011.5 hPa | 0 mm | - | 0 W/m² | - |
| 1777867135 | 13.33° C | 76% | 1011.3 hPa | 0 mm | - | 0 W/m² | - |
| 1777866833 | 13.33° C | 76% | 1011.5 hPa | 0 mm | - | 0 W/m² | - |
| 1777866529 | 13.33° C | 76% | 1011.4 hPa | 0 mm | - | 0 W/m² | - |
| 1777866228 | 13.33° C | 76% | 1011.4 hPa | 0 mm | - | 0 W/m² | - |
| 1777865924 | 13.33° C | 77% | 1011.1 hPa | 0 mm | - | 0 W/m² | - |
| 1777865623 | 13.33° C | 78% | 1011.2 hPa | 0 mm | - | 0 W/m² | - |
| 1777865319 | 13.33° C | 78% | 1010.9 hPa | 0 mm | - | 0 W/m² | - |
| 1777865016 | 13.33° C | 78% | 1010.8 hPa | 0 mm | - | 0 W/m² | - |
| 1777864713 | 13.33° C | 78% | 1010.4 hPa | 0 mm | - | 0 W/m² | - |
| 1777864410 | 13.33° C | 78% | 1010.8 hPa | 0 mm | - | 1 W/m² | - |
| 1777864106 | 13.33° C | 78% | 1010.7 hPa | 0 mm | - | 1 W/m² | - |
| 1777863804 | 13.33° C | 78% | 1010.5 hPa | 0 mm | - | 3 W/m² | - |
| 1777863499 | 13.33° C | 79% | 1010.7 hPa | 0 mm | - | 4 W/m² | - |
| 1777863197 | 13.89° C | 78% | 1010.3 hPa | 0 mm | - | 7 W/m² | - |
| 1777862893 | 13.89° C | 78% | 1010.7 hPa | 0 mm | - | 10 W/m² | - |
| 1777862590 | 13.89° C | 78% | 1010.4 hPa | 0 mm | - | 14 W/m² | - |
| 1777862287 | 13.89° C | 78% | 1010.4 hPa | 0 mm | - | 17 W/m² | - |
| 1777861983 | 13.89° C | 78% | 1010.5 hPa | 0 mm | - | 21 W/m² | - |
| 1777861679 | 13.89° C | 77% | 1010.3 hPa | 0 mm | - | 26 W/m² | - |
| 1777861375 | 13.89° C | 78% | 1010.3 hPa | 0 mm | - | 29 W/m² | - |
| 1777861072 | 13.89° C | 77% | 1010.2 hPa | 0 mm | - | 34 W/m² | - |
* Rain latest hour (hover to see other rain measurements)
** Current wind speed in m/s (hover to see current wind gust speed)